Hourly Weather Kitzbuhel

Today, 5 August, Thursday

Time Temperature Precipitation Wind Pressure Humidity
00:00 +12°C° 1.3 mm 1 mps 674 mmHg 99%
01:00 +12°C° 1.3 mm 1 mps 674 mmHg 99%
02:00 +12°C° 1.6 mm 1 mps 674 mmHg 99%
03:00 +12°C° 1.6 mm 1 mps 674 mmHg 99%
04:00 +11°C° 1.6 mm 1 mps 674 mmHg 99%
05:00 +11°C° 1.3 mm 1 mps 674 mmHg 99%
06:00 +11°C° 1.3 mm 1 mps 674 mmHg 98%
07:00 +11°C° 1.3 mm 1 mps 674 mmHg 98%
08:00 +11°C° 0.6 mm 1 mps 674 mmHg 97%
09:00 +12°C° 0.6 mm 1 mps 674 mmHg 97%
10:00 +12°C° 0.6 mm 1 mps 674 mmHg 97%
11:00 +12°C° 0.2 mm 1 mps 674 mmHg 93%
12:00 +13°C° 0.2 mm 1 mps 674 mmHg 89%
13:00 +14°C° 0.2 mm 1 mps 674 mmHg 86%
14:00 +15°C° 0.2 mm 1 mps 674 mmHg 80%
15:00 +18°C° 0.2 mm 1 mps 674 mmHg 74%
16:00 +18°C° 0.2 mm 2 mps 674 mmHg 69%
17:00 +18°C° 0.5 mm 1 mps 673 mmHg 76%
18:00 +15°C° 0.5 mm 1 mps 673 mmHg 84%
19:00 +14°C° 0.5 mm 1 mps 673 mmHg 91%
20:00 +13°C° 0.2 mm 1 mps 673 mmHg 92%
21:00 +13°C° 0.2 mm 1 mps 674 mmHg 93%
22:00 +12°C° 0.2 mm 1 mps 674 mmHg 93%
23:00 +12°C° 0 mm 1 mps 674 mmHg 93%

Tomorrow, 6 August, Friday

Time Temperature Precipitation Wind Pressure Humidity
00:00 +11°C° 0 mm 1 mps 673 mmHg 93%
01:00 +11°C° 0 mm 1 mps 673 mmHg 93%
02:00 +10°C° 0 mm 1 mps 673 mmHg 94%
03:00 +10°C° 0 mm 1 mps 673 mmHg 94%
04:00 +10°C° 0 mm 1 mps 673 mmHg 95%
05:00 +11°C° 0 mm 1 mps 673 mmHg 94%
06:00 +12°C° 0 mm 1 mps 674 mmHg 92%
07:00 +13°C° 0 mm 1 mps 674 mmHg 91%
08:00 +14°C° 0.2 mm 1 mps 674 mmHg 87%
09:00 +15°C° 0.2 mm 1 mps 674 mmHg 82%
10:00 +16°C° 0.2 mm 1 mps 675 mmHg 78%
11:00 +18°C° 0.1 mm 1 mps 675 mmHg 70%
12:00 +19°C° 0.1 mm 2 mps 675 mmHg 61%
13:00 +21°C° 0.1 mm 2 mps 675 mmHg 52%
14:00 +21°C° 0.1 mm 2 mps 675 mmHg 54%
15:00 +21°C° 0.1 mm 2 mps 675 mmHg 57%
16:00 +21°C° 0.1 mm 2 mps 675 mmHg 59%
17:00 +19°C° 0 mm 2 mps 674 mmHg 69%
18:00 +18°C° 0 mm 1 mps 674 mmHg 79%
19:00 +16°C° 0 mm 1 mps 674 mmHg 89%
20:00 +15°C° 0 mm 1 mps 674 mmHg 91%
21:00 +14°C° 0 mm 1 mps 675 mmHg 92%
22:00 +13°C° 0 mm 1 mps 675 mmHg 94%
23:00 +13°C° 0 mm 1 mps 675 mmHg 93%

Day after tomorrow, 7 August, Saturday

Time Temperature Precipitation Wind Pressure Humidity
00:00 +13°C° 0 mm 1 mps 674 mmHg 93%
01:00 +12°C° 0 mm 2 mps 674 mmHg 92%
02:00 +12°C° 0 mm 2 mps 674 mmHg 92%
03:00 +12°C° 0 mm 2 mps 674 mmHg 92%
04:00 +12°C° 0 mm 2 mps 673 mmHg 92%
05:00 +13°C° 0 mm 2 mps 674 mmHg 88%
06:00 +14°C° 0 mm 1 mps 674 mmHg 85%
07:00 +16°C° 0 mm 1 mps 674 mmHg 81%
08:00 +19°C° 0 mm 1 mps 674 mmHg 71%
09:00 +21°C° 0 mm 1 mps 674 mmHg 62%
10:00 +24°C° 0 mm 1 mps 674 mmHg 52%
11:00 +25°C° 0 mm 2 mps 674 mmHg 48%
12:00 +26°C° 0 mm 2 mps 673 mmHg 44%
13:00 +27°C° 0 mm 2 mps 673 mmHg 40%
14:00 +27°C° 0 mm 2 mps 673 mmHg 42%
15:00 +27°C° 0 mm 3 mps 672 mmHg 43%
16:00 +27°C° 0 mm 3 mps 672 mmHg 45%
17:00 +25°C° 0 mm 3 mps 672 mmHg 56%
18:00 +22°C° 0 mm 3 mps 672 mmHg 67%
19:00 +20°C° 0 mm 2 mps 672 mmHg 79%
20:00 +18°C° 0.3 mm 2 mps 673 mmHg 84%
21:00 +16°C° 0.3 mm 2 mps 674 mmHg 90%
22:00 +14°C° 0.3 mm 1 mps 675 mmHg 96%
23:00 +14°C° 0.3 mm 1 mps 675 mmHg 97%

8 August, Sunday

Time Temperature Precipitation Wind Pressure Humidity
00:00 +13°C° 0.3 mm 1 mps 676 mmHg 97%
01:00 +13°C° 0.3 mm 1 mps 676 mmHg 97%
02:00 +13°C° 0.1 mm 1 mps 676 mmHg 97%
03:00 +12°C° 0.1 mm 0 mps 676 mmHg 97%
04:00 +12°C° 0.1 mm 0 mps 676 mmHg 96%
05:00 +12°C° 0 mm 0 mps 676 mmHg 96%
06:00 +12°C° 0 mm 0 mps 676 mmHg 95%
07:00 +13°C° 0 mm 0 mps 676 mmHg 94%
08:00 +14°C° 0 mm 1 mps 677 mmHg 91%
09:00 +15°C° 0 mm 1 mps 677 mmHg 89%
10:00 +16°C° 0 mm 1 mps 677 mmHg 86%
11:00 +16°C° 0.1 mm 1 mps 677 mmHg 86%
12:00 +16°C° 0.1 mm 2 mps 677 mmHg 85%
13:00 +16°C° 0.1 mm 2 mps 677 mmHg 85%
14:00 +15°C° 0.6 mm 2 mps 678 mmHg 90%
15:00 +15°C° 0.6 mm 2 mps 678 mmHg 94%
16:00 +14°C° 0.6 mm 2 mps 679 mmHg 98%
17:00 +13°C° 0.6 mm 1 mps 679 mmHg 98%
18:00 +13°C° 0.6 mm 1 mps 680 mmHg 98%
19:00 +12°C° 0.6 mm 1 mps 680 mmHg 98%
20:00 +12°C° 0 mm 1 mps 680 mmHg 97%
21:00 +12°C° 0 mm 1 mps 681 mmHg 96%
22:00 +12°C° 0 mm 1 mps 681 mmHg 95%
23:00 +12°C° 0 mm 1 mps 681 mmHg 94%

9 August, Monday

Time Temperature Precipitation Wind Pressure Humidity
00:00 +12°C° 0 mm 1 mps 681 mmHg 94%
01:00 +12°C° 0 mm 1 mps 681 mmHg 93%
02:00 +12°C° 0 mm 1 mps 681 mmHg 93%
03:00 +11°C° 0 mm 1 mps 680 mmHg 93%
04:00 +10°C° 0 mm 1 mps 680 mmHg 94%
05:00 +11°C° 0 mm 1 mps 680 mmHg 92%
06:00 +11°C° 0 mm 0 mps 681 mmHg 90%
07:00 +12°C° 0 mm 0 mps 681 mmHg 88%
08:00 +15°C° 0 mm 1 mps 681 mmHg 79%
09:00 +18°C° 0 mm 1 mps 682 mmHg 69%
10:00 +20°C° 0 mm 1 mps 682 mmHg 60%
11:00 +21°C° 0 mm 1 mps 682 mmHg 59%
12:00 +21°C° 0 mm 1 mps 682 mmHg 58%
13:00 +20°C° 0 mm 2 mps 682 mmHg 57%
14:00 +20°C° 0 mm 2 mps 682 mmHg 60%
15:00 +21°C° 0 mm 1 mps 682 mmHg 62%
16:00 +21°C° 0 mm 1 mps 682 mmHg 65%
17:00 +19°C° 0 mm 1 mps 682 mmHg 72%
18:00 +18°C° 0 mm 1 mps 682 mmHg 79%
19:00 +16°C° 0 mm 1 mps 682 mmHg 87%
20:00 +15°C° 0 mm 1 mps 683 mmHg 89%
21:00 +14°C° 0 mm 1 mps 683 mmHg 92%
22:00 +13°C° 0 mm 0 mps 683 mmHg 95%
23:00 +13°C° 0 mm 1 mps 683 mmHg 95%

10 August, Tuesday

Time Temperature Precipitation Wind Pressure Humidity
00:00 +13°C° 0 mm 1 mps 683 mmHg 95%
01:00 +12°C° 0 mm 1 mps 683 mmHg 95%
02:00 +12°C° 0 mm 1 mps 683 mmHg 95%
03:00 +12°C° 0 mm 1 mps 682 mmHg 95%
04:00 +12°C° 0 mm 1 mps 682 mmHg 95%
05:00 +13°C° 0 mm 1 mps 682 mmHg 91%
06:00 +14°C° 0 mm 1 mps 683 mmHg 87%
07:00 +14°C° 0 mm 0 mps 683 mmHg 84%
08:00 +19°C° 0 mm 1 mps 683 mmHg 73%
09:00 +21°C° 0 mm 1 mps 683 mmHg 63%
10:00 +23°C° 0 mm 1 mps 683 mmHg 52%
11:00 +24°C° 0 mm 1 mps 683 mmHg 50%
12:00 +25°C° 0 mm 2 mps 683 mmHg 47%
13:00 +25°C° 0 mm 2 mps 683 mmHg 44%
14:00 +25°C° 0 mm 2 mps 682 mmHg 46%
15:00 +25°C° 0 mm 2 mps 682 mmHg 48%
16:00 +25°C° 0 mm 2 mps 682 mmHg 50%
17:00 +23°C° 0 mm 1 mps 681 mmHg 62%
18:00 +21°C° 0 mm 1 mps 681 mmHg 74%
19:00 +19°C° 0 mm 1 mps 681 mmHg 87%
20:00 +18°C° 0.2 mm 1 mps 681 mmHg 89%
21:00 +16°C° 0.2 mm 1 mps 681 mmHg 91%
22:00 +15°C° 0.2 mm 1 mps 681 mmHg 94%
23:00 +15°C° 0 mm 1 mps 681 mmHg 93%
Show more